W2GRK-15 Weather Reports


Display with metric or nautical units.
time (UTC)temp
F
wind
direction
speed
MPH
gust
MPH
rain 1hr
in
rain 24hr
in
rain mn
in
humidity
%
barometer
mb
20260505130219 68 229 5.0 6.0 0.00 0.00 0.00 59 1011.8
20260505130151 69 206 5.0 7.0 0.00 0.00 0.00 59 1011.8
20260505125031 67 212 3.0 5.0 0.00 0.00 0.00 61 1011.7
20260505124926 67 207 3.0 7.0 0.00 0.00 0.00 62 1011.8
20260505124822 67 193 7.0 13.0 0.00 0.00 0.00 62 1011.4
20260505124717 67 196 5.0 8.0 0.00 0.00 0.00 62 1011.7
20260505124629 67 191 5.0 9.0 0.00 0.00 0.00 61 1011.7
20260505124604 67 195 6.0 9.0 0.00 0.00 0.00 61 1011.7
20260505124420 67 207 6.0 6.0 0.00 0.00 0.00 61 1011.7
20260505124316 67 203 4.0 7.0 0.00 0.00 0.00 61 1011.6
20260505124228 67 194 6.0 9.0 0.00 0.00 0.00 61 1011.6
20260505124123 67 230 3.0 6.0 0.00 0.00 0.00 61 1011.6
20260505124019 67 214 3.0 5.0 0.00 0.00 0.00 62 1011.5
20260505123950 67 191 3.0 4.0 0.00 0.00 0.00 62 1011.6
20260505123826 67 199 3.0 6.0 0.00 0.00 0.00 62 1011.6
20260505123721 66 214 3.0 6.0 0.00 0.00 0.00 62 1011.6
20260505123617 66 216 4.0 5.0 0.00 0.00 0.00 63 1011.6
20260505123609 67 189 6.0 9.0 0.00 0.00 0.00 61 1011.7
20260505123424 66 215 3.0 9.0 0.00 0.00 0.00 62 1011.7
20260505123320 66 230 6.0 9.0 0.00 0.00 0.00 62 1011.7
20260505123216 66 194 7.0 10.0 0.00 0.00 0.00 62 1011.6
20260505123127 66 210 5.0 8.0 0.00 0.00 0.00 63 1011.6
20260505123123 66 204 7.0 17.0 0.00 0.00 0.00 62 1011.5
20260505122939 67 207 9.0 17.0 0.00 0.00 0.00 61 1011.5
20260505122830 67 201 5.0 9.0 0.00 0.00 0.00 62 1011.4
20260505122746 66 182 3.0 4.0 0.00 0.00 0.00 63 1011.4
20260505122621 66 203 4.0 6.0 0.00 0.00 0.00 63 1011.5
20260505122517 66 213 4.0 6.0 0.00 0.00 0.00 63 1011.6
20260505122428 66 198 4.0 10.0 0.00 0.00 0.00 62 1011.6
20260505122324 66 234 4.0 9.0 0.00 0.00 0.00 62 1011.7
20260505122220 66 197 5.0 8.0 0.00 0.00 0.00 61 1011.5
20260505122115 66 215 4.0 7.0 0.00 0.00 0.00 62 1011.4
20260505122027 66 203 5.0 8.0 0.00 0.00 0.00 62 1011.4
20260505121922 67 213 5.0 6.0 0.00 0.00 0.00 62 1011.3
20260505121818 67 249 4.0 9.0 0.00 0.00 0.00 61 1011.6
20260505121730 67 218 3.0 5.0 0.00 0.00 0.00 63 1011.5
20260505121625 67 205 4.0 6.0 0.00 0.00 0.00 63 1011.5
20260505121521 66 185 1.0 2.0 0.00 0.00 0.00 62 1011.5
20260505121417 66 204 1.0 2.0 0.00 0.00 0.00 63 1011.7
20260505121328 66 219 4.0 10.0 0.00 0.00 0.00 63 1011.8
20260505121224 66 250 3.0 10.0 0.00 0.00 0.00 63 1011.6
20260505121119 66 222 6.0 10.0 0.00 0.00 0.00 64 1011.5
20260505121031 66 194 7.0 10.0 0.00 0.00 0.00 63 1011.7
20260505120926 66 193 4.0 4.0 0.00 0.00 0.00 64 1011.7
20260505120822 66 199 4.0 7.0 0.00 0.00 0.00 64 1011.6
20260505120717 66 191 5.0 7.0 0.00 0.00 0.00 64 1011.6
20260505120649 66 206 3.0 4.0 0.00 0.00 0.00 64 1011.8
20260505120525 66 226 4.0 7.0 0.00 0.00 0.00 64 1011.7
20260505120421 66 194 3.0 5.0 0.00 0.00 0.00 65 1011.5
20260505120316 66 196 1.0 4.0 0.00 0.00 0.00 65 1011.5
20260505120228 66 234 2.0 3.0 0.00 0.00 0.00 65 1011.5
20260505120123 65 190 1.0 4.0 0.00 0.00 0.00 66 1011.5
20260505120019 65 187 3.0 4.0 0.00 0.00 0.00 65 1011.8
20260505115930 65 192 3.0 4.0 0.00 0.00 0.00 65 1011.6
20260505115826 65 192 2.0 4.0 0.00 0.00 0.00 65 1011.5
20260505115722 65 224 3.0 5.0 0.00 0.00 0.00 65 1011.6
20260505115657 65 219 3.0 4.0 0.00 0.00 0.00 67 1011.6
20260505115528 65 204 4.0 5.0 0.00 0.00 0.00 67 1011.6
20260505115444 65 193 3.0 5.0 0.00 0.00 0.00 66 1011.6
20260505115340 65 204 3.0 5.0 0.00 0.00 0.00 67 1011.6
20260505115215 65 191 4.0 5.0 0.00 0.00 0.00 66 1011.6
20260505115127 64 225 3.0 4.0 0.00 0.00 0.00 67 1011.4
20260505115022 64 202 5.0 7.0 0.00 0.00 0.00 67 1011.6
20260505114918 64 201 5.0 7.0 0.00 0.00 0.00 67 1011.4
20260505114830 64 192 4.0 7.0 0.00 0.00 0.00 68 1011.5
20260505114725 64 192 2.0 4.0 0.00 0.00 0.00 68 1011.7
20260505114621 64 216 3.0 4.0 0.00 0.00 0.00 69 1011.7
20260505114516 64 197 4.0 5.0 0.00 0.00 0.00 69 1011.6
20260505114428 63 195 3.0 6.0 0.00 0.00 0.00 70 1011.8
20260505114404 63 199 4.0 5.0 0.00 0.00 0.00 70 1011.6
20260505114219 63 167 2.0 4.0 0.00 0.00 0.00 70 1011.8
20260505114131 63 188 5.0 7.0 0.00 0.00 0.00 70 1011.6
20260505114027 63 198 4.0 6.0 0.00 0.00 0.00 70 1011.6
20260505113922 63 189 5.0 6.0 0.00 0.00 0.00 70 1011.6
20260505113818 63 189 4.0 6.0 0.00 0.00 0.00 71 1011.7
20260505113809 62 202 3.0 5.0 0.00 0.00 0.00 71 1011.7
20260505113625 62 188 3.0 4.0 0.00 0.00 0.00 72 1011.7
20260505113540 62 191 2.0 4.0 0.00 0.00 0.00 72 1011.8
20260505113456 62 201 3.0 4.0 0.00 0.00 0.00 72 1011.9
20260505113327 62 194 3.0 6.0 0.00 0.00 0.00 73 1011.8
20260505113223 62 193 3.0 4.0 0.00 0.00 0.00 73 1011.6
20260505113119 62 191 3.0 4.0 0.00 0.00 0.00 73 1011.7
20260505113030 62 193 3.0 4.0 0.00 0.00 0.00 73 1011.7
20260505112926 61 195 3.0 5.0 0.00 0.00 0.00 73 1011.7
20260505112822 61 188 4.0 6.0 0.00 0.00 0.00 73 1011.7
20260505112717 61 199 3.0 4.0 0.00 0.00 0.00 74 1011.6
20260505112629 61 194 2.0 3.0 0.00 0.00 0.00 73 1011.8
20260505112525 61 194 3.0 4.0 0.00 0.00 0.00 74 1011.8
20260505112420 61 183 3.0 4.0 0.00 0.00 0.00 73 1011.8
20260505112316 61 190 4.0 6.0 0.00 0.00 0.00 73 1011.7
20260505112227 61 181 3.0 4.0 0.00 0.00 0.00 74 1011.7
20260505112123 61 188 2.0 3.0 0.00 0.00 0.00 74 1011.8
20260505112038 61 155 1.0 3.0 0.00 0.00 0.00 74 1011.7
20260505111930 61 185 2.0 4.0 0.00 0.00 0.00 75 1011.8
20260505111826 61 196 3.0 5.0 0.00 0.00 0.00 74 1011.6
20260505111721 61 184 3.0 3.0 0.00 0.00 0.00 75 1011.6
20260505111617 60 185 2.0 3.0 0.00 0.00 0.00 74 1011.8
20260505111529 60 192 3.0 4.0 0.00 0.00 0.00 75 1011.7
20260505111424 60 208 3.0 5.0 0.00 0.00 0.00 74 1011.7
20260505111320 60 184 3.0 4.0 0.00 0.00 0.00 74 1011.7
20260505111236 60 184 2.0 4.0 0.00 0.00 0.00 75 1011.6
20260505111127 60 187 2.0 3.0 0.00 0.00 0.00 75 1011.8
20260505111022 60 202 3.0 4.0 0.00 0.00 0.00 75 1011.8
20260505110918 60 189 3.0 4.0 0.00 0.00 0.00 75 1011.7
20260505110850 60 184 3.0 3.0 0.00 0.00 0.00 76 1011.6
20260505110725 60 181 2.0 3.0 0.00 0.00 0.00 76 1011.6
20260505110621 60 188 2.0 3.0 0.00 0.00 0.00 76 1011.6
20260505110517 60 179 2.0 3.0 0.00 0.00 0.00 76 1011.6
20260505110429 60 175 3.0 3.0 0.00 0.00 0.00 77 1011.7
20260505110324 59 165 1.0 2.0 0.00 0.00 0.00 77 1011.8
20260505110240 59 178 2.0 3.0 0.00 0.00 0.00 77 1011.5
20260505110115 59 201 2.0 3.0 0.00 0.00 0.00 77 1011.7
20260505102219 58 185 2.0 2.0 0.00 0.00 0.00 79 1011.6
20260505102115 57 200 3.0 4.0 0.00 0.00 0.00 79 1011.5
20260505102027 57 202 3.0 4.0 0.00 0.00 0.00 79 1011.8
20260505101923 57 205 1.0 3.0 0.00 0.00 0.00 79 1011.6
20260505101837 57 187 2.0 3.0 0.00 0.00 0.00 79 1011.7
20260505101729 57 207 1.0 4.0 0.00 0.00 0.00 79 1011.5
20260505101625 57 202 2.0 4.0 0.00 0.00 0.00 80 1011.6
20260505101520 57 201 3.0 3.0 0.00 0.00 0.00 80 1011.6
20260505101416 57 200 3.0 5.0 0.00 0.00 0.00 80 1011.6
20260505101327 57 209 2.0 4.0 0.00 0.00 0.00 80 1011.8
20260505101223 57 209 2.0 3.0 0.00 0.00 0.00 80 1011.5
20260505101118 57 203 2.0 3.0 0.00 0.00 0.00 80 1011.5
20260505101030 56 188 2.0 3.0 0.00 0.00 0.00 81 1011.4
20260505100925 56 169 1.0 2.0 0.00 0.00 0.00 81 1011.4
20260505100821 56 97 1.0 2.0 0.00 0.00 0.00 81 1011.5
20260505100757 56 84 2.0 2.0 0.00 0.00 0.00 81 1011.5
20260505100628 56 178 1.0 2.0 0.00 0.00 0.00 81 1011.4
20260505100524 56 222 1.0 2.0 0.00 0.00 0.00 81 1011.3
20260505100439 56 228 1.0 3.0 0.00 0.00 0.00 81 1011.5
20260505100315 56 186 2.0 3.0 0.00 0.00 0.00 81 1011.4
20260505100227 56 213 2.0 3.0 0.00 0.00 0.00 81 1011.5
20260505100122 56 193 2.0 4.0 0.00 0.00 0.00 81 1011.4
20260505100038 56 185 3.0 4.0 0.00 0.00 0.00 81 1011.2
20260505095950 56 204 2.0 5.0 0.00 0.00 0.00 81 1011.7
20260505095825 56 214 3.0 5.0 0.00 0.00 0.00 82 1011.5
20260505095741 56 181 1.0 3.0 0.00 0.00 0.00 82 1011.3
20260505095616 56 198 3.0 6.0 0.00 0.00 0.00 82 1011.4
20260505095528 56 187 3.0 4.0 0.00 0.00 0.00 82 1011.3
20260505095423 56 189 3.0 4.0 0.00 0.00 0.00 82 1011.5
20260505095319 56 190 2.0 3.0 0.00 0.00 0.00 82 1011.2
20260505095231 56 197 1.0 2.0 0.00 0.00 0.00 82 1011.2
20260505095126 56 183 1.0 3.0 0.00 0.00 0.00 82 1011.5
20260505095022 56 210 2.0 4.0 0.00 0.00 0.00 82 1011.2
20260505094938 55 184 2.0 3.0 0.00 0.00 0.00 82 1011.2
20260505094909 55 183 2.0 3.0 0.00 0.00 0.00 82 1011.1
20260505094725 55 169 1.0 3.0 0.00 0.00 0.00 82 1011.2
20260505094640 55 144 1.0 2.0 0.00 0.00 0.00 82 1011.1
20260505094516 55 172 1.0 2.0 0.00 0.00 0.00 82 1011.2
20260505094428 56 165 0.0 2.0 0.00 0.00 0.00 82 1011.0
20260505094343 56 155 0.0 1.0 0.00 0.00 0.00 82 1010.9
20260505094239 56 154 0.0 2.0 0.00 0.00 0.00 82 1011.1
20260505094130 56 186 1.0 3.0 0.00 0.00 0.00 82 1011.0
20260505094026 56 202 2.0 2.0 0.00 0.00 0.00 82 1010.9
20260505093942 56 176 2.0 3.0 0.00 0.00 0.00 82 1010.8
20260505093817 56 187 2.0 3.0 0.00 0.00 0.00 82 1010.9
20260505093729 56 208 1.0 2.0 0.00 0.00 0.00 82 1010.9
20260505093645 56 201 2.0 3.0 0.00 0.00 0.00 82 1010.7
20260505093541 56 188 1.0 2.0 0.00 0.00 0.00 82 1010.5
20260505093416 56 190 1.0 2.0 0.00 0.00 0.00 82 1010.6
20260505093347 56 181 1.0 2.0 0.00 0.00 0.00 82 1010.7
20260505093222 56 191 1.0 2.0 0.00 0.00 0.00 82 1010.7
20260505093138 56 190 1.0 2.0 0.00 0.00 0.00 82 1010.8
20260505093050 56 194 1.0 2.0 0.00 0.00 0.00 82 1010.8
20260505092926 56 0.0 1.0 0.00 0.00 0.00 82 1010.6
20260505092821 56 0.0 1.0 0.00 0.00 0.00 82 1010.4
20260505092717 56 162 0.0 2.0 0.00 0.00 0.00 82 1010.5
20260505092628 56 262 0.0 2.0 0.00 0.00 0.00 82 1010.6
20260505092524 56 193 2.0 3.0 0.00 0.00 0.00 82 1010.5
20260505092440 55 196 2.0 3.0 0.00 0.00 0.00 82 1010.6
20260505092315 55 192 2.0 2.0 0.00 0.00 0.00 82 1010.6
20260505092227 55 95 0.0 2.0 0.00 0.00 0.00 83 1010.7
20260505092122 55 170 1.0 2.0 0.00 0.00 0.00 83 1010.4
20260505092018 55 172 1.0 2.0 0.00 0.00 0.00 83 1010.6
20260505092010 55 166 0.0 2.0 0.00 0.00 0.00 83 1010.5
20260505091825 55 0.0 2.0 0.00 0.00 0.00 83 1010.5
20260505091721 55 0.0 1.0 0.00 0.00 0.00 83 1010.5
20260505091616 55 192 0.0 2.0 0.00 0.00 0.00 83 1010.5
20260505091528 55 305 0.0 1.0 0.00 0.00 0.00 83 1010.6
20260505091424 55 0.0 1.0 0.00 0.00 0.00 83 1010.5
20260505091319 55 174 1.0 2.0 0.00 0.00 0.00 83 1010.4
20260505091231 55 179 1.0 3.0 0.00 0.00 0.00 83 1010.5
20260505091146 55 198 0.0 2.0 0.00 0.00 0.00 83 1010.5
20260505091021 55 171 1.0 3.0 0.00 0.00 0.00 83 1010.6
20260505090917 55 183 2.0 2.0 0.00 0.00 0.00 84 1010.6
20260505090849 55 140 1.0 2.0 0.00 0.00 0.00 84 1010.7
20260505090745 55 208 1.0 2.0 0.00 0.00 0.00 84 1010.7
20260505090640 55 266 1.0 2.0 0.00 0.00 0.00 85 1010.7
20260505090515 54 186 1.0 2.0 0.00 0.00 0.00 85 1010.6
20260505090427 54 177 0.0 2.0 0.00 0.00 0.00 85 1010.8
20260505090323 54 209 1.0 2.0 0.00 0.00 0.00 86 1010.8
20260505090218 54 128 1.0 2.0 0.00 0.00 0.00 86 1010.8
20260505090130 54 128 1.0 2.0 0.00 0.00 0.00 86 1010.7
20260505090025 54 134 1.0 2.0 0.00 0.00 0.00 86 1010.7
20260505085921 54 133 0.0 2.0 0.00 0.00 0.00 86 1010.6
20260505085817 54 178 0.0 1.0 0.00 0.00 0.00 86 1010.8
20260505085728 54 0.0 1.0 0.00 0.00 0.00 86 1010.7
20260505085624 54 154 1.0 3.0 0.00 0.00 0.00 86 1010.6
20260505085519 54 129 1.0 3.0 0.00 0.00 0.00 86 1010.7
20260505085430 54 136 1.0 2.0 0.00 0.00 0.00 86 1010.7
20260505085326 54 166 1.0 2.0 0.00 0.00 0.00 87 1010.8
20260505085222 53 206 2.0 3.0 0.00 0.00 0.00 88 1010.6
20260505085137 53 150 1.0 2.0 0.00 0.00 0.00 88 1010.8
20260505085028 53 111 1.0 2.0 0.00 0.00 0.00 88 1010.5
20260505084924 53 189 1.0 3.0 0.00 0.00 0.00 89 1010.6
20260505084819 52 199 2.0 2.0 0.00 0.00 0.00 89 1010.7
20260505084731 52 200 1.0 2.0 0.00 0.00 0.00 90 1010.7
20260505084627 52 33 1.0 1.0 0.00 0.00 0.00 90 1010.8
20260505084522 52 131 1.0 2.0 0.00 0.00 0.00 89 1010.6
20260505084438 52 105 0.0 1.0 0.00 0.00 0.00 89 1010.7
20260505084329 52 0.0 2.0 0.00 0.00 0.00 89 1010.8
20260505084225 52 123 0.0 2.0 0.00 0.00 0.00 89 1010.6
20260505084121 52 109 1.0 2.0 0.00 0.00 0.00 89 1010.8
20260505084016 52 140 1.0 2.0 0.00 0.00 0.00 89 1010.7
20260505083928 52 158 1.0 2.0 0.00 0.00 0.00 89 1010.7
20260505083823 52 121 1.0 2.0 0.00 0.00 0.00 89 1010.5
20260505083719 52 40 0.0 1.0 0.00 0.00 0.00 89 1010.9
20260505083631 52 112 1.0 1.0 0.00 0.00 0.00 89 1010.6
20260505083526 52 0.0 2.0 0.00 0.00 0.00 89 1010.8
20260505083422 52 69 1.0 2.0 0.00 0.00 0.00 89 1010.8
20260505083337 52 81 1.0 2.0 0.00 0.00 0.00 89 1010.6
20260505083229 52 0.0 2.0 0.00 0.00 0.00 89 1010.7
20260505083125 52 60 1.0 2.0 0.00 0.00 0.00 89 1010.5
20260505083020 52 0.0 1.0 0.00 0.00 0.00 89 1010.7
20260505082936 52 0.0 2.0 0.00 0.00 0.00 89 1010.7
20260505082827 52 0.0 2.0 0.00 0.00 0.00 89 1010.8
20260505082723 52 77 0.0 2.0 0.00 0.00 0.00 89 1010.7
20260505082639 52 87 1.0 2.0 0.00 0.00 0.00 89 1010.8
20260505082530 52 65 1.0 2.0 0.00 0.00 0.00 89 1010.7
20260505082426 52 112 1.0 2.0 0.00 0.00 0.00 89 1010.8
20260505082321 52 124 1.0 3.0 0.00 0.00 0.00 89 1010.7
20260505082217 52 134 1.0 2.0 0.00 0.00 0.00 89 1010.8
20260505082129 52 132 1.0 4.0 0.00 0.00 0.00 89 1010.7
20260505082024 52 127 2.0 3.0 0.00 0.00 0.00 89 1010.6
20260505082000 52 145 0.0 2.0 0.00 0.00 0.00 89 1010.6
20260505081815 52 138 0.0 2.0 0.00 0.00 0.00 88 1010.7
20260505081727 52 85 0.0 2.0 0.00 0.00 0.00 88 1010.7
20260505081623 52 98 1.0 1.0 0.00 0.00 0.00 88 1010.5
20260505081519 52 82 0.0 2.0 0.00 0.00 0.00 88 1010.6
20260505081430 52 162 0.0 2.0 0.00 0.00 0.00 88 1010.5
20260505081325 52 0.0 2.0 0.00 0.00 0.00 88 1010.8
20260505081221 52 143 1.0 2.0 0.00 0.00 0.00 88 1010.5
20260505081117 52 123 2.0 3.0 0.00 0.00 0.00 88 1010.4
20260505081048 52 109 1.0 3.0 0.00 0.00 0.00 88 1010.7
20260505080924 52 122 1.0 2.0 0.00 0.00 0.00 88 1010.6
20260505080820 52 0.0 1.0 0.00 0.00 0.00 87 1010.6
20260505080715 52 155 0.0 1.0 0.00 0.00 0.00 87 1010.8
20260505080647 52 186 1.0 2.0 0.00 0.00 0.00 87 1010.7
20260505080523 52 174 1.0 2.0 0.00 0.00 0.00 87 1010.4
20260505080418 52 151 2.0 3.0 0.00 0.00 0.00 87 1010.6
20260505080330 52 135 1.0 2.0 0.00 0.00 0.00 87 1010.5
20260505080225 52 126 2.0 2.0 0.00 0.00 0.00 87 1010.7
20260505080121 52 130 2.0 2.0 0.00 0.00 0.00 87 1010.7
20260505080016 52 133 1.0 2.0 0.00 0.00 0.00 87 1010.7
20260505075928 52 101 1.0 2.0 0.00 0.00 0.00 87 1010.7
20260505075824 52 82 1.0 2.0 0.00 0.00 0.00 86 1010.7
20260505075719 52 0.0 0.0 0.00 0.00 0.00 86 1010.7
20260505075615 52 174 0.0 2.0 0.00 0.00 0.00 86 1010.6
20260505075526 52 0.0 1.0 0.00 0.00 0.00 86 1010.6
20260505075442 53 330 0.0 2.0 0.00 0.00 0.00 86 1010.7
20260505075338 53 133 1.0 2.0 0.00 0.00 0.00 86 1010.8
20260505075249 53 126 1.0 1.0 0.00 0.00 0.00 86 1010.6
20260505075145 53 118 1.0 2.0 0.00 0.00 0.00 86 1010.7
20260505075021 53 118 1.0 2.0 0.00 0.00 0.00 86 1010.7
20260505074916 53 128 1.0 2.0 0.00 0.00 0.00 86 1010.7
20260505074828 53 122 1.0 2.0 0.00 0.00 0.00 86 1010.6
20260505074723 53 119 2.0 2.0 0.00 0.00 0.00 86 1010.7
20260505074619 53 124 1.0 2.0 0.00 0.00 0.00 86 1010.8
20260505074530 53 136 1.0 2.0 0.00 0.00 0.00 86 1010.8
20260505074426 53 147 1.0 2.0 0.00 0.00 0.00 86 1010.8
20260505074322 53 142 2.0 2.0 0.00 0.00 0.00 86 1010.7
20260505074217 53 145 2.0 2.0 0.00 0.00 0.00 86 1010.6
20260505074129 53 134 1.0 2.0 0.00 0.00 0.00 86 1010.5
20260505074025 53 143 2.0 2.0 0.00 0.00 0.00 86 1010.7
20260505073920 53 116 1.0 2.0 0.00 0.00 0.00 86 1010.7
20260505073816 53 120 1.0 2.0 0.00 0.00 0.00 86 1010.7
20260505073748 53 0.0 2.0 0.00 0.00 0.00 86 1010.8
20260505073623 53 106 1.0 2.0 0.00 0.00 0.00 86 1010.7
20260505073519 53 121 1.0 2.0 0.00 0.00 0.00 86 1010.6
20260505073430 53 108 1.0 2.0 0.00 0.00 0.00 85 1010.7
20260505073326 53 120 1.0 2.0 0.00 0.00 0.00 85 1010.6
20260505073221 53 0.0 2.0 0.00 0.00 0.00 85 1010.8
20260505073117 53 0.0 1.0 0.00 0.00 0.00 85 1010.8
20260505073028 53 194 1.0 2.0 0.00 0.00 0.00 85 1010.7
20260505072924 53 178 1.0 1.0 0.00 0.00 0.00 85 1010.7
20260505072819 53 0.0 1.0 0.00 0.00 0.00 86 1010.7
20260505072715 53 122 1.0 2.0 0.00 0.00 0.00 86 1010.7
20260505072627 53 122 1.0 2.0 0.00 0.00 0.00 86 1010.5
20260505072523 53 128 2.0 2.0 0.00 0.00 0.00 85 1010.7
20260505072418 53 154 1.0 2.0 0.00 0.00 0.00 85 1010.5
20260505072330 53 158 2.0 2.0 0.00 0.00 0.00 85 1010.6
20260505072225 53 152 2.0 2.0 0.00 0.00 0.00 85 1010.6
20260505072121 53 134 1.0 2.0 0.00 0.00 0.00 85 1010.5
20260505072016 53 119 1.0 2.0 0.00 0.00 0.00 85 1010.7
20260505071948 53 137 1.0 2.0 0.00 0.00 0.00 85 1010.7
20260505071824 53 122 1.0 2.0 0.00 0.00 0.00 85 1010.7
20260505071719 53 133 0.0 1.0 0.00 0.00 0.00 85 1010.6
20260505071615 53 0.0 1.0 0.00 0.00 0.00 85 1010.8
20260505071527 53 0.0 0.0 0.00 0.00 0.00 85 1010.7
20260505071422 53 0.0 1.0 0.00 0.00 0.00 85 1010.6
20260505071318 53 125 0.0 2.0 0.00 0.00 0.00 85 1010.8
20260505071229 53 113 0.0 2.0 0.00 0.00 0.00 85 1010.6
20260505071125 53 358 1.0 2.0 0.00 0.00 0.00 85 1010.7
20260505071021 53 24 1.0 2.0 0.00 0.00 0.00 85 1010.7
20260505070936 53 56 1.0 2.0 0.00 0.00 0.00 85 1010.7
20260505070828 53 87 1.0 2.0 0.00 0.00 0.00 85 1010.8
20260505070723 53 111 1.0 3.0 0.00 0.00 0.00 85 1010.5
20260505070619 53 92 1.0 2.0 0.00 0.00 0.00 85 1010.8
20260505070531 53 0.0 1.0 0.00 0.00 0.00 84 1010.8
20260505070426 53 0.0 1.0 0.00 0.00 0.00 84 1010.5
20260505070322 53 0.0 0.0 0.00 0.00 0.00 84 1010.6
20260505070218 53 0.0 1.0 0.00 0.00 0.00 84 1010.7
20260505070129 53 168 1.0 1.0 0.00 0.00 0.00 84 1010.8
20260505070025 53 0.0 1.0 0.00 0.00 0.00 84 1010.8
20260505065921 53 125 1.0 2.0 0.00 0.00 0.00 84 1010.6
20260505065816 53 109 1.0 2.0 0.00 0.00 0.00 84 1010.6
20260505065728 53 0.0 1.0 0.00 0.00 0.00 84 1010.6
20260505065624 53 106 0.0 2.0 0.00 0.00 0.00 84 1010.7
20260505065519 53 105 1.0 2.0 0.00 0.00 0.00 84 1010.6
20260505065431 53 100 1.0 2.0 0.00 0.00 0.00 84 1010.8
20260505065326 53 111 1.0 2.0 0.00 0.00 0.00 84 1010.5
20260505065222 53 124 1.0 2.0 0.00 0.00 0.00 84 1010.7
20260505065117 53 129 1.0 2.0 0.00 0.00 0.00 84 1010.9
20260505065029 53 106 1.0 2.0 0.00 0.00 0.00 84 1010.7
20260505064945 53 111 1.0 2.0 0.00 0.00 0.00 84 1010.7
20260505064820 53 117 1.0 2.0 0.00 0.00 0.00 84 1010.5
20260505064716 53 121 1.0 2.0 0.00 0.00 0.00 84 1010.7
20260505064627 53 114 1.0 2.0 0.00 0.00 0.00 84 1010.6
20260505064523 53 145 1.0 2.0 0.00 0.00 0.00 83 1010.5
20260505064419 53 136 1.0 2.0 0.00 0.00 0.00 83 1010.5
20260505064330 53 130 1.0 2.0 0.00 0.00 0.00 83 1010.5
20260505064226 53 127 1.0 2.0 0.00 0.00 0.00 83 1010.6
20260505064202 53 130 1.0 2.0 0.00 0.00 0.00 83 1010.6
20260505064017 53 125 1.0 2.0 0.00 0.00 0.00 83 1010.7
20260505063929 53 132 1.0 2.0 0.00 0.00 0.00 83 1010.6
20260505063904 53 124 1.0 2.0 0.00 0.00 0.00 83 1010.7
20260505063719 53 138 1.0 2.0 0.00 0.00 0.00 83 1010.5
20260505063615 53 117 1.0 2.0 0.00 0.00 0.00 83 1010.5
20260505063527 53 106 1.0 2.0 0.00 0.00 0.00 83 1010.6
20260505063422 53 119 1.0 2.0 0.00 0.00 0.00 83 1010.7
20260505063318 53 117 1.0 2.0 0.00 0.00 0.00 83 1010.7
20260505063229 53 98 0.0 1.0 0.00 0.00 0.00 83 1010.7
20260505063145 53 98 0.0 1.0 0.00 0.00 0.00 83 1010.6
20260505063021 53 118 0.0 1.0 0.00 0.00 0.00 83 1010.6
20260505062916 53 133 1.0 1.0 0.00 0.00 0.00 83 1010.5
20260505062848 53 130 1.0 2.0 0.00 0.00 0.00 83 1010.6
20260505062744 53 121 2.0 2.0 0.00 0.00 0.00 83 1010.6
20260505062619 53 119 1.0 2.0 0.00 0.00 0.00 83 1010.5
20260505062531 53 124 1.0 2.0 0.00 0.00 0.00 83 1010.6
20260505062426 53 119 1.0 2.0 0.00 0.00 0.00 83 1010.7
20260505062402 53 122 1.0 2.0 0.00 0.00 0.00 83 1010.7
20260505062217 53 108 1.0 2.0 0.00 0.00 0.00 83 1010.8
20260505062129 53 127 1.0 2.0 0.00 0.00 0.00 82 1010.9
20260505062025 53 118 1.0 1.0 0.00 0.00 0.00 82 1010.6
20260505061920 53 133 0.0 1.0 0.00 0.00 0.00 82 1010.6
20260505061816 53 114 1.0 2.0 0.00 0.00 0.00 82 1010.7
20260505061728 53 145 1.0 2.0 0.00 0.00 0.00 82 1010.7
20260505061623 53 109 1.0 2.0 0.00 0.00 0.00 82 1010.7
20260505061519 53 156 1.0 2.0 0.00 0.00 0.00 82 1010.7
20260505061430 53 141 1.0 1.0 0.00 0.00 0.00 82 1010.7
20260505061326 53 162 0.0 2.0 0.00 0.00 0.00 82 1010.6
20260505061221 53 134 1.0 2.0 0.00 0.00 0.00 82 1010.9
20260505061117 53 144 0.0 2.0 0.00 0.00 0.00 82 1010.9
20260505061028 53 127 1.0 2.0 0.00 0.00 0.00 82 1010.7
20260505060944 53 0.0 2.0 0.00 0.00 0.00 81 1010.7
20260505060820 53 115 1.0 2.0 0.00 0.00 0.00 81 1010.7
20260505060715 53 118 1.0 2.0 0.00 0.00 0.00 81 1010.8
20260505060627 53 130 1.0 2.0 0.00 0.00 0.00 81 1010.8
20260505060522 53 111 1.0 2.0 0.00 0.00 0.00 81 1010.8
20260505060418 53 121 1.0 2.0 0.00 0.00 0.00 81 1010.7
20260505060329 53 137 2.0 2.0 0.00 0.00 0.00 80 1010.9
20260505060225 53 139 2.0 2.0 0.00 0.00 0.00 80 1010.9
20260505060121 53 125 1.0 2.0 0.00 0.00 0.00 80 1010.8
20260505060016 53 141 1.0 2.0 0.00 0.00 0.00 80 1010.7
20260505055928 54 130 0.0 2.0 0.00 0.00 0.00 80 1011.0
20260505055824 54 127 1.0 2.0 0.00 0.00 0.00 80 1010.7
20260505055719 54 132 1.0 2.0 0.00 0.00 0.00 80 1010.8
20260505055631 54 134 1.0 2.0 0.00 0.00 0.00 80 1010.7
20260505055526 54 128 0.0 2.0 0.00 0.00 0.00 80 1010.7
20260505055422 54 129 1.0 2.0 0.00 0.00 0.00 79 1010.6
20260505055317 54 0.0 2.0 0.00 0.00 0.00 79 1010.9
20260505055229 54 132 1.0 2.0 0.00 0.00 0.00 79 1011.1
20260505055124 54 142 1.0 2.0 0.00 0.00 0.00 79 1010.7
20260505055100 54 141 1.0 2.0 0.00 0.00 0.00 79 1010.9
20260505054916 54 178 0.0 2.0 0.00 0.00 0.00 79 1010.8
20260505054907 54 0.0 1.0 0.00 0.00 0.00 79 1010.8
20260505054743 54 191 2.0 2.0 0.00 0.00 0.00 79 1010.8
20260505054639 54 4 1.0 2.0 0.00 0.00 0.00 79 1010.9
20260505054530 54 357 1.0 2.0 0.00 0.00 0.00 79 1010.9
20260505054446 54 0.0 1.0 0.00 0.00 0.00 79 1010.7
20260505054341 54 0.0 1.0 0.00 0.00 0.00 79 1010.9
20260505054217 54 0.0 0.0 0.00 0.00 0.00 79 1010.7
20260505054149 54 0.0 1.0 0.00 0.00 0.00 80 1010.8
20260505054024 54 0.0 1.0 0.00 0.00 0.00 80 1010.9
20260505053940 53 0.0 1.0 0.00 0.00 0.00 80 1010.8
20260505053816 53 0.0 1.0 0.00 0.00 0.00 80 1010.7
20260505053727 53 129 0.0 1.0 0.00 0.00 0.00 80 1010.7
20260505053623 53 123 1.0 2.0 0.00 0.00 0.00 80 1010.6
20260505053518 53 0.0 1.0 0.00 0.00 0.00 80 1010.8
20260505053430 53 127 1.0 2.0 0.00 0.00 0.00 80 1010.9
20260505053326 53 115 0.0 2.0 0.00 0.00 0.00 80 1010.7
20260505053242 53 126 1.0 1.0 0.00 0.00 0.00 80 1010.7
20260505053117 53 67 0.0 2.0 0.00 0.00 0.00 80 1010.8
20260505053029 53 147 1.0 1.0 0.00 0.00 0.00 80 1010.8
20260505052924 53 0.0 0.0 0.00 0.00 0.00 80 1010.8
20260505052820 53 0.0 1.0 0.00 0.00 0.00 80 1010.7
20260505052715 53 0.0 1.0 0.00 0.00 0.00 80 1010.9
20260505052627 53 97 1.0 2.0 0.00 0.00 0.00 80 1011.0
20260505052522 53 141 1.0 2.0 0.00 0.00 0.00 80 1010.8
20260505052418 53 122 1.0 2.0 0.00 0.00 0.00 80 1010.7
20260505052330 53 131 1.0 2.0 0.00 0.00 0.00 79 1010.9
20260505052245 53 129 1.0 2.0 0.00 0.00 0.00 79 1011.0
20260505052121 53 100 1.0 2.0 0.00 0.00 0.00 79 1010.8
20260505052016 53 116 1.0 2.0 0.00 0.00 0.00 79 1011.0
20260505051928 53 0.0 1.0 0.00 0.00 0.00 79 1010.9
20260505051824 53 138 0.0 1.0 0.00 0.00 0.00 79 1010.8
20260505051719 53 0.0 1.0 0.00 0.00 0.00 79 1010.9
20260505051651 53 0.0 1.0 0.00 0.00 0.00 79 1010.9
20260505051526 53 0.0 1.0 0.00 0.00 0.00 79 1011.0
20260505051422 53 160 0.0 2.0 0.00 0.00 0.00 79 1011.1
20260505051318 53 126 1.0 2.0 0.00 0.00 0.00 78 1011.0
20260505051229 53 139 0.0 2.0 0.00 0.00 0.00 78 1010.9
20260505051125 53 144 1.0 2.0 0.00 0.00 0.00 78 1011.0
20260505051021 54 141 1.0 2.0 0.00 0.00 0.00 78 1010.9
20260505050915 54 138 1.0 2.0 0.00 0.00 0.00 78 1010.9
20260505050827 54 0.0 2.0 0.00 0.00 0.00 78 1010.9
20260505050723 54 0.0 1.0 0.00 0.00 0.00 78 1010.9
20260505050618 54 0.0 1.0 0.00 0.00 0.00 78 1011.1
20260505050530 54 0.0 1.0 0.00 0.00 0.00 78 1011.0
20260505050445 54 0.0 1.0 0.00 0.00 0.00 78 1010.9
20260505050321 54 0.0 1.0 0.00 0.00 0.00 78 1011.0
20260505050237 54 145 1.0 2.0 0.00 0.00 0.00 78 1010.9
20260505050128 54 142 1.0 2.0 0.00 0.00 0.00 77 1011.1
20260505041726 56 138 1.0 2.0 0.00 0.00 0.00 71 1011.3
20260505041642 56 127 1.0 2.0 0.00 0.00 0.00 70 1011.1
20260505041517 56 131 1.0 2.0 0.00 0.00 0.00 70 1011.3
20260505041429 56 179 1.0 1.0 0.00 0.00 0.00 70 1011.2
20260505041325 56 0.0 1.0 0.00 0.00 0.00 70 1011.3
20260505041220 56 0.0 1.0 0.00 0.00 0.00 70 1011.2
20260505041116 56 42 0.0 1.0 0.00 0.00 0.00 70 1011.4
20260505041047 56 139 1.0 1.0 0.00 0.00 0.00 70 1011.2
20260505040923 56 83 1.0 1.0 0.00 0.00 0.00 70 1011.4
20260505040819 56 0.0 0.0 0.00 0.00 0.00 70 1011.4
20260505040730 56 0.0 0.0 0.00 0.00 0.00 70 1011.2
20260505040706 56 0.0 1.0 0.00 0.00 0.00 70 1011.1
20260505040521 56 149 1.0 2.0 0.00 0.00 0.00 70 1011.1
20260505040417 56 83 1.0 2.0 0.00 0.00 0.00 70 1011.1
20260505040348 56 93 1.0 2.0 0.00 0.00 0.00 70 1011.2
20260505040224 57 129 1.0 2.0 0.00 0.00 0.00 69 1011.4
20260505040120 57 133 1.0 2.0 0.00 0.00 0.00 69 1011.2
20260505040015 57 142 0.0 2.0 0.00 0.00 0.00 69 1011.3
20260505035927 57 98 0.0 1.0 0.00 0.00 0.00 69 1011.5
20260505035822 57 114 1.0 2.0 0.00 0.00 0.00 69 1011.2
20260505035718 57 128 1.0 2.0 0.00 0.00 0.00 69 1011.3
20260505035630 57 99 1.0 2.0 0.00 0.00 0.00 69 1011.1
20260505035525 57 86 1.0 2.0 0.00 0.00 0.00 69 1011.2
20260505035421 57 0.0 1.0 0.00 0.00 0.00 68 1011.1
20260505035336 57 131 1.0 2.0 0.00 0.00 0.00 68 1011.3
20260505035248 57 124 1.0 2.0 0.00 0.00 0.00 68 1011.2
20260505035144 57 0.0 2.0 0.00 0.00 0.00 68 1011.2
20260505035019 57 131 1.0 2.0 0.00 0.00 0.00 68 1011.2
20260505034931 58 84 0.0 2.0 0.00 0.00 0.00 67 1011.3
20260505034826 58 96 1.0 1.0 0.00 0.00 0.00 67 1011.1
20260505034722 57 325 1.0 2.0 0.00 0.00 0.00 67 1011.3
20260505034617 57 53 0.0 2.0 0.00 0.00 0.00 67 1011.3
20260505034529 57 0.0 0.0 0.00 0.00 0.00 68 1011.2
20260505034425 58 122 1.0 2.0 0.00 0.00 0.00 67 1011.2
20260505034320 58 95 0.0 2.0 0.00 0.00 0.00 67 1011.2
20260505034236 58 228 0.0 1.0 0.00 0.00 0.00 67 1011.1
20260505034127 57 0.0 1.0 0.00 0.00 0.00 67 1011.1
20260505034023 57 74 1.0 1.0 0.00 0.00 0.00 68 1011.3
20260505033918 57 25 0.0 1.0 0.00 0.00 0.00 67 1011.3
20260505033830 57 0.0 1.0 0.00 0.00 0.00 67 1011.2
20260505033746 57 125 1.0 2.0 0.00 0.00 0.00 67 1011.2
20260505033621 58 140 1.0 2.0 0.00 0.00 0.00 67 1011.3
20260505033537 58 128 1.0 2.0 0.00 0.00 0.00 67 1011.4
20260505033429 58 127 1.0 2.0 0.00 0.00 0.00 66 1011.2
20260505033324 58 124 1.0 2.0 0.00 0.00 0.00 66 1011.2
20260505033220 58 112 0.0 2.0 0.00 0.00 0.00 66 1011.4
20260505033115 58 119 0.0 2.0 0.00 0.00 0.00 66 1011.3
20260505033027 58 120 2.0 3.0 0.00 0.00 0.00 66 1011.2
20260505032923 58 126 1.0 2.0 0.00 0.00 0.00 66 1011.3
20260505032818 58 135 1.0 2.0 0.00 0.00 0.00 66 1011.4
20260505032730 58 131 1.0 2.0 0.00 0.00 0.00 65 1011.2
20260505032625 58 115 1.0 2.0 0.00 0.00 0.00 65 1011.3
20260505032541 58 142 0.0 1.0 0.00 0.00 0.00 65 1011.4
20260505032417 58 101 1.0 2.0 0.00 0.00 0.00 64 1011.5
20260505032328 58 127 1.0 2.0 0.00 0.00 0.00 64 1011.4
20260505032224 58 137 1.0 2.0 0.00 0.00 0.00 64 1011.4
20260505032120 59 130 0.0 1.0 0.00 0.00 0.00 64 1011.2
20260505032015 59 0.0 2.0 0.00 0.00 0.00 64 1011.3
20260505031927 59 146 1.0 2.0 0.00 0.00 0.00 64 1011.6
20260505031822 59 106 1.0 2.0 0.00 0.00 0.00 63 1011.3
20260505031738 59 145 1.0 2.0 0.00 0.00 0.00 63 1011.4
20260505031630 59 143 1.0 2.0 0.00 0.00 0.00 63 1011.3
20260505031525 59 147 0.0 2.0 0.00 0.00 0.00 63 1011.5
20260505031441 59 127 1.0 2.0 0.00 0.00 0.00 63 1011.4
20260505031316 59 131 1.0 2.0 0.00 0.00 0.00 62 1011.6
20260505031248 59 161 1.0 2.0 0.00 0.00 0.00 62 1011.4
20260505031124 60 208 1.0 2.0 0.00 0.00 0.00 62 1011.5
20260505031039 60 134 1.0 2.0 0.00 0.00 0.00 62 1011.6
20260505030931 60 134 1.0 2.0 0.00 0.00 0.00 62 1011.5
20260505030826 60 197 1.0 2.0 0.00 0.00 0.00 61 1011.4
20260505030722 60 0.0 2.0 0.00 0.00 0.00 61 1011.5
20260505030638 60 130 1.0 2.0 0.00 0.00 0.00 61 1011.4
20260505030529 60 106 1.0 3.0 0.00 0.00 0.00 61 1011.6
20260505030425 60 191 1.0 2.0 0.00 0.00 0.00 60 1011.6
20260505030320 60 180 1.0 2.0 0.00 0.00 0.00 61 1011.5
20260505030216 60 183 1.0 2.0 0.00 0.00 0.00 61 1011.6
20260505030128 60 155 2.0 3.0 0.00 0.00 0.00 61 1011.5
20260505030023 60 183 3.0 6.0 0.00 0.00 0.00 60 1011.7
20260505025919 60 195 3.0 5.0 0.00 0.00 0.00 61 1011.5
20260505025831 60 183 2.0 2.0 0.00 0.00 0.00 61 1011.4
20260505025726 60 186 1.0 2.0 0.00 0.00 0.00 61 1011.5
20260505025702 60 188 1.0 3.0 0.00 0.00 0.00 61 1011.7
20260505025517 60 151 1.0 2.0 0.00 0.00 0.00 61 1011.5
20260505025429 60 167 2.0 4.0 0.00 0.00 0.00 61 1011.5
20260505025324 60 180 2.0 3.0 0.00 0.00 0.00 61 1011.4
20260505025220 60 144 2.0 2.0 0.00 0.00 0.00 61 1011.4
20260505025116 60 229 1.0 3.0 0.00 0.00 0.00 61 1011.6
20260505025028 60 127 1.0 2.0 0.00 0.00 0.00 61 1011.4
20260505024923 60 0.0 2.0 0.00 0.00 0.00 61 1011.4
20260505024818 60 119 1.0 2.0 0.00 0.00 0.00 61 1011.6
20260505024730 60 169 1.0 3.0 0.00 0.00 0.00 61 1011.5
20260505024646 60 201 2.0 3.0 0.00 0.00 0.00 60 1011.3
20260505024521 60 99 0.0 2.0 0.00 0.00 0.00 60 1011.6
20260505024417 60 67 1.0 2.0 0.00 0.00 0.00 61 1011.5
20260505024348 60 127 1.0 2.0 0.00 0.00 0.00 60 1011.3
20260505024224 60 120 1.0 1.0 0.00 0.00 0.00 60 1011.2
20260505024120 60 127 1.0 2.0 0.00 0.00 0.00 60 1011.4
20260505024015 60 126 1.0 2.0 0.00 0.00 0.00 60 1011.4
20260505023927 60 137 2.0 3.0 0.00 0.00 0.00 60 1011.4
20260505023822 60 129 0.0 2.0 0.00 0.00 0.00 60 1011.4
20260505023718 60 143 1.0 2.0 0.00 0.00 0.00 59 1011.6
20260505023630 60 136 1.0 2.0 0.00 0.00 0.00 59 1011.3
20260505023545 61 168 1.0 2.0 0.00 0.00 0.00 59 1011.5
20260505023421 61 125 2.0 3.0 0.00 0.00 0.00 59 1011.4
20260505023316 61 137 1.0 2.0 0.00 0.00 0.00 58 1011.6
20260505023228 61 145 1.0 2.0 0.00 0.00 0.00 58 1011.6
20260505023144 61 99 1.0 2.0 0.00 0.00 0.00 58 1011.4
20260505023019 61 110 2.0 3.0 0.00 0.00 0.00 57 1011.6
20260505022951 62 123 2.0 2.0 0.00 0.00 0.00 57 1011.5
20260505022827 62 185 2.0 4.0 0.00 0.00 0.00 56 1011.6
20260505022722 62 196 1.0 3.0 0.00 0.00 0.00 56 1011.7
20260505022618 62 172 1.0 3.0 0.00 0.00 0.00 56 1011.5
20260505022549 62 176 2.0 3.0 0.00 0.00 0.00 56 1011.5
20260505022425 62 179 1.0 3.0 0.00 0.00 0.00 56 1011.6
20260505022320 62 221 2.0 3.0 0.00 0.00 0.00 55 1011.4
20260505022216 62 188 1.0 2.0 0.00 0.00 0.00 55 1011.5
20260505022127 62 187 2.0 2.0 0.00 0.00 0.00 55 1011.4
20260505022023 62 209 2.0 3.0 0.00 0.00 0.00 56 1011.6
20260505021919 62 172 2.0 3.0 0.00 0.00 0.00 55 1011.6
20260505021830 62 206 2.0 3.0 0.00 0.00 0.00 55 1011.5
20260505021726 62 198 2.0 3.0 0.00 0.00 0.00 55 1011.6
20260505021642 62 0.0 2.0 0.00 0.00 0.00 55 1011.4
20260505021517 62 115 1.0 3.0 0.00 0.00 0.00 55 1011.6
20260505021429 62 208 1.0 2.0 0.00 0.00 0.00 54 1011.7
20260505021324 62 196 1.0 3.0 0.00 0.00 0.00 54 1011.4
20260505021220 62 204 2.0 3.0 0.00 0.00 0.00 54 1011.5
20260505021135 62 184 2.0 3.0 0.00 0.00 0.00 54 1011.7
20260505021027 62 199 4.0 7.0 0.00 0.00 0.00 54 1011.5
20260505020923 62 209 5.0 6.0 0.00 0.00 0.00 54 1011.7
20260505020818 62 207 1.0 2.0 0.00 0.00 0.00 55 1011.6
20260505020730 62 148 2.0 5.0 0.00 0.00 0.00 54 1011.7
20260505020646 62 211 1.0 3.0 0.00 0.00 0.00 54 1011.6
20260505020522 62 57 2.0 4.0 0.00 0.00 0.00 54 1011.7
20260505020417 62 156 0.0 2.0 0.00 0.00 0.00 54 1011.7
20260505020329 62 128 1.0 2.0 0.00 0.00 0.00 54 1011.7
20260505020244 62 198 2.0 3.0 0.00 0.00 0.00 54 1011.6
20260505020120 62 182 2.0 2.0 0.00 0.00 0.00 54 1011.7
20260505020015 62 208 2.0 4.0 0.00 0.00 0.00 53 1011.7
20260505015927 62 197 2.0 5.0 0.00 0.00 0.00 53 1011.6
20260505015823 62 142 1.0 2.0 0.00 0.00 0.00 53 1011.5
20260505015718 62 163 1.0 2.0 0.00 0.00 0.00 53 1011.6
20260505015630 61 169 2.0 4.0 0.00 0.00 0.00 53 1011.5
20260505015526 61 208 2.0 4.0 0.00 0.00 0.00 53 1011.4
20260505015421 61 195 2.0 3.0 0.00 0.00 0.00 54 1011.4
20260505015317 61 124 1.0 2.0 0.00 0.00 0.00 53 1011.4
20260505015229 61 155 0.0 2.0 0.00 0.00 0.00 53 1011.5
20260505015124 62 150 1.0 2.0 0.00 0.00 0.00 53 1011.4
20260505015020 61 143 2.0 4.0 0.00 0.00 0.00 52 1011.5
20260505014915 61 190 2.0 4.0 0.00 0.00 0.00 53 1011.5
20260505014827 61 161 1.0 3.0 0.00 0.00 0.00 53 1011.5
20260505014723 61 83 2.0 3.0 0.00 0.00 0.00 53 1011.5
20260505014618 61 166 1.0 2.0 0.00 0.00 0.00 54 1011.4
20260505014530 61 149 1.0 2.0 0.00 0.00 0.00 53 1011.3
20260505014425 61 119 0.0 2.0 0.00 0.00 0.00 53 1011.5
20260505014321 61 56 1.0 2.0 0.00 0.00 0.00 53 1011.4
20260505014237 61 123 2.0 3.0 0.00 0.00 0.00 54 1011.4
20260505014128 60 183 3.0 5.0 0.00 0.00 0.00 52 1011.4
20260505014024 60 184 1.0 3.0 0.00 0.00 0.00 56 1011.5
20260505013919 60 181 1.0 2.0 0.00 0.00 0.00 57 1011.3
20260505013815 60 186 1.0 2.0 0.00 0.00 0.00 55 1011.3
20260505013727 60 156 2.0 2.0 0.00 0.00 0.00 55 1011.5
20260505013622 60 124 1.0 4.0 0.00 0.00 0.00 55 1011.3
20260505013518 60 208 1.0 2.0 0.00 0.00 0.00 54 1011.4
20260505013430 60 0.0 2.0 0.00 0.00 0.00 54 1011.3
20260505013325 60 80 1.0 2.0 0.00 0.00 0.00 55 1011.2
20260505013221 60 0.0 1.0 0.00 0.00 0.00 55 1011.5
20260505013116 60 0.0 2.0 0.00 0.00 0.00 55 1011.4
20260505013028 60 128 1.0 2.0 0.00 0.00 0.00 54 1011.5
20260505013004 60 132 1.0 3.0 0.00 0.00 0.00 55 1011.3
20260505012819 60 143 2.0 3.0 0.00 0.00 0.00 54 1011.3
20260505012715 60 121 2.0 2.0 0.00 0.00 0.00 55 1011.2
20260505012627 60 144 1.0 2.0 0.00 0.00 0.00 55 1011.2
20260505012522 60 118 1.0 2.0 0.00 0.00 0.00 55 1011.2
20260505012418 60 0.0 1.0 0.00 0.00 0.00 54 1011.2
20260505012330 60 111 1.0 2.0 0.00 0.00 0.00 55 1011.2
20260505012225 60 126 1.0 2.0 0.00 0.00 0.00 55 1011.1
20260505012141 60 149 1.0 2.0 0.00 0.00 0.00 54 1011.2
20260505012017 60 135 1.0 2.0 0.00 0.00 0.00 54 1011.2
20260505011928 60 137 1.0 2.0 0.00 0.00 0.00 54 1011.1
20260505011824 60 144 1.0 2.0 0.00 0.00 0.00 54 1011.0
20260505011719 60 116 0.0 2.0 0.00 0.00 0.00 54 1011.0
20260505011631 60 92 1.0 2.0 0.00 0.00 0.00 54 1011.0
20260505011546 61 170 0.0 2.0 0.00 0.00 0.00 54 1011.0
20260505011442 61 122 1.0 2.0 0.00 0.00 0.00 54 1011.0
20260505011318 61 0.0 1.0 0.00 0.00 0.00 54 1011.0
20260505011229 61 122 0.0 2.0 0.00 0.00 0.00 54 1011.0
20260505011125 61 142 1.0 2.0 0.00 0.00 0.00 54 1010.8
20260505011021 61 108 0.0 2.0 0.00 0.00 0.00 54 1010.7
20260505010916 61 139 1.0 2.0 0.00 0.00 0.00 53 1010.9
20260505010828 61 117 0.0 1.0 0.00 0.00 0.00 53 1011.0
20260505010723 61 148 1.0 2.0 0.00 0.00 0.00 52 1010.8
20260505010619 61 196 0.0 1.0 0.00 0.00 0.00 52 1010.8
20260505010531 62 0.0 2.0 0.00 0.00 0.00 52 1010.9
20260505010427 62 147 0.0 2.0 0.00 0.00 0.00 52 1010.9
20260505010322 62 120 0.0 2.0 0.00 0.00 0.00 51 1010.8
20260505010218 62 157 0.0 1.0 0.00 0.00 0.00 51 1010.9
20260505010129 62 150 1.0 2.0 0.00 0.00 0.00 51 1010.8
20260505010025 62 0.0 2.0 0.00 0.00 0.00 52 1010.9
20260505005920 62 0.0 2.0 0.00 0.00 0.00 52 1011.0
20260505005816 62 139 1.0 2.0 0.00 0.00 0.00 52 1010.9
20260505005728 62 149 1.0 2.0 0.00 0.00 0.00 51 1010.8
20260505005624 62 114 1.0 2.0 0.00 0.00 0.00 50 1011.0
20260505005519 62 123 1.0 2.0 0.00 0.00 0.00 50 1010.8
20260505005451 62 152 0.0 2.0 0.00 0.00 0.00 50 1010.9
20260505005326 62 126 1.0 2.0 0.00 0.00 0.00 50 1010.8
20260505005222 63 98 1.0 2.0 0.00 0.00 0.00 50 1010.7
20260505005138 63 99 1.0 2.0 0.00 0.00 0.00 50 1010.7
20260505005029 63 142 1.0 2.0 0.00 0.00 0.00 49 1010.7
20260505004925 63 0.0 1.0 0.00 0.00 0.00 49 1010.7
20260505004840 63 199 0.0 2.0 0.00 0.00 0.00 49 1010.6
20260505004716 63 142 1.0 2.0 0.00 0.00 0.00 49 1010.8
20260505004627 63 124 1.0 2.0 0.00 0.00 0.00 49 1010.6
20260505004543 63 0.0 1.0 0.00 0.00 0.00 49 1010.6
20260505004439 63 0.0 2.0 0.00 0.00 0.00 49 1010.7
20260505004331 63 144 1.0 2.0 0.00 0.00 0.00 48 1010.6
20260505004226 64 0.0 2.0 0.00 0.00 0.00 48 1010.6
20260505004122 64 142 1.0 2.0 0.00 0.00 0.00 48 1010.5
20260505004017 64 84 0.0 1.0 0.00 0.00 0.00 48 1010.7
20260505003929 64 157 0.0 2.0 0.00 0.00 0.00 48 1010.4
20260505003825 64 137 0.0 1.0 0.00 0.00 0.00 47 1010.6
20260505003720 64 0.0 0.0 0.00 0.00 0.00 47 1010.6
20260505003616 64 0.0 2.0 0.00 0.00 0.00 47 1010.5
20260505003528 64 131 1.0 2.0 0.00 0.00 0.00 47 1010.5
20260505003423 64 176 0.0 1.0 0.00 0.00 0.00 47 1010.6
20260505003359 65 124 0.0 2.0 0.00 0.00 0.00 47 1010.5
20260505003230 65 153 1.0 1.0 0.00 0.00 0.00 46 1010.5
20260505003126 65 81 1.0 1.0 0.00 0.00 0.00 46 1010.3
20260505003021 65 0.0 1.0 0.00 0.00 0.00 46 1010.5
20260505002917 65 102 1.0 2.0 0.00 0.00 0.00 46 1010.4
20260505002849 65 111 1.0 2.0 0.00 0.00 0.00 46 1010.5
20260505002724 65 118 1.0 2.0 0.00 0.00 0.00 45 1010.6
20260505002640 66 134 1.0 2.0 0.00 0.00 0.00 45 1010.4
20260505002516 66 139 1.0 2.0 0.00 0.00 0.00 44 1010.6
20260505002427 66 118 0.0 2.0 0.00 0.00 0.00 44 1010.4
20260505002323 66 0.0 0.0 0.00 0.00 0.00 43 1010.4
20260505002238 66 0.0 1.0 0.00 0.00 0.00 42 1010.3
20260505002130 66 0.0 1.0 0.00 0.00 0.00 42 1010.4
20260505002026 66 193 0.0 2.0 0.00 0.00 0.00 42 1010.5
20260505001921 67 0.0 1.0 0.00 0.00 0.00 42 1010.4
20260505001817 67 184 0.0 2.0 0.00 0.00 0.00 42 1010.3
20260505001728 67 0.0 1.0 0.00 0.00 0.00 41 1010.5
20260505001624 67 216 1.0 3.0 0.00 0.00 0.00 41 1010.3
20260505001520 67 206 1.0 2.0 0.00 0.00 0.00 41 1010.2
20260505001415 67 191 1.0 2.0 0.00 0.00 0.00 41 1010.2
20260505001327 67 224 1.0 2.0 0.00 0.00 0.00 41 1010.3
20260505001222 67 210 1.0 2.0 0.00 0.00 0.00 41 1010.3
20260505001118 67 219 1.0 2.0 0.00 0.00 0.00 41 1010.4
20260505001030 67 222 0.0 2.0 0.00 0.00 0.00 40 1010.3
20260505000925 67 206 1.0 2.0 0.00 0.00 0.00 41 1010.3
20260505000821 67 235 1.0 2.0 0.00 0.00 0.00 40 1010.2
20260505000716 67 201 1.0 2.0 0.00 0.00 0.00 40 1010.2
20260505000628 67 248 0.0 2.0 0.00 0.00 0.00 40 1010.3
20260505000524 68 190 1.0 2.0 0.00 0.00 0.00 40 1010.3
20260505000420 68 220 2.0 4.0 0.00 0.00 0.00 40 1010.3
20260505000331 68 195 2.0 3.0 0.00 0.00 0.00 40 1010.2
20260505000226 68 192 1.0 3.0 0.00 0.00 0.00 40 1010.2
20260505000142 68 199 1.0 3.0 0.00 0.00 0.00 39 1010.1
20260505000038 68 190 1.0 3.0 0.00 0.00 0.00 39 1010.1
20260504235929 68 199 3.0 5.0 0.00 0.00 0.00 39 1010.0
20260504235825 68 213 2.0 4.0 0.00 0.00 0.00 39 1009.8
20260504235721 68 209 2.0 3.0 0.00 0.00 0.00 38 1010.0
20260504235616 68 208 2.0 3.0 0.00 0.00 0.00 39 1009.9
20260504235548 68 190 2.0 3.0 0.00 0.00 0.00 39 1009.9
20260504235424 69 209 3.0 4.0 0.00 0.00 0.00 39 1009.9
20260504235339 69 216 2.0 4.0 0.00 0.00 0.00 38 1009.9
20260504235231 69 198 3.0 4.0 0.00 0.00 0.00 38 1009.9
20260504235126 69 202 3.0 4.0 0.00 0.00 0.00 39 1010.3
20260504235022 69 206 1.0 2.0 0.00 0.00 0.00 38 1009.8
20260504234917 69 206 2.0 3.0 0.00 0.00 0.00 37 1009.9
20260504234830 69 213 3.0 4.0 0.00 0.00 0.00 38 1009.9
20260504234725 69 204 3.0 4.0 0.00 0.00 0.00 38 1010.0
20260504234621 69 202 4.0 6.0 0.00 0.00 0.00 37 1009.8
20260504234536 69 215 2.0 4.0 0.00 0.00 0.00 37 1009.8
20260504234428 69 236 1.0 4.0 0.00 0.00 0.00 37 1009.8
20260504234324 69 218 3.0 6.0 0.00 0.00 0.00 37 1009.9
20260504234239 69 248 4.0 6.0 0.00 0.00 0.00 37 1009.6
20260504234131 69 200 2.0 4.0 0.00 0.00 0.00 38 1009.8
20260504234026 69 214 3.0 4.0 0.00 0.00 0.00 37 1009.7
20260504233942 69 221 2.0 6.0 0.00 0.00 0.00 37 1009.9
20260504233817 69 197 3.0 5.0 0.00 0.00 0.00 37 1009.7
20260504233729 69 265 4.0 7.0 0.00 0.00 0.00 37 1009.7
20260504233645 69 265 3.0 4.0 0.00 0.00 0.00 37 1009.6
20260504233520 69 210 4.0 6.0 0.00 0.00 0.00 37 1009.8
20260504233436 69 212 4.0 6.0 0.00 0.00 0.00 37 1009.8
20260504233328 69 208 3.0 4.0 0.00 0.00 0.00 38 1009.8
20260504233243 69 208 3.0 4.0 0.00 0.00 0.00 38 1009.8
20260504233119 69 214 1.0 3.0 0.00 0.00 0.00 37 1009.6
20260504233031 69 208 3.0 4.0 0.00 0.00 0.00 37 1009.7
20260504232926 69 208 4.0 6.0 0.00 0.00 0.00 37 1009.5
20260504232821 70 234 3.0 5.0 0.00 0.00 0.00 37 1009.7
20260504232716 70 220 3.0 5.0 0.00 0.00 0.00 37 1009.7
20260504232628 70 211 4.0 5.0 0.00 0.00 0.00 37 1009.7
20260504232523 70 213 3.0 4.0 0.00 0.00 0.00 37 1009.5
20260504232419 70 228 3.0 6.0 0.00 0.00 0.00 37 1009.7
20260504232330 70 199 3.0 6.0 0.00 0.00 0.00 37 1009.6
20260504232226 70 248 3.0 5.0 0.00 0.00 0.00 37 1009.8
20260504232141 70 223 3.0 8.0 0.00 0.00 0.00 37 1009.6
20260504232017 70 206 4.0 5.0 0.00 0.00 0.00 37 1009.6
20260504231929 70 257 2.0 4.0 0.00 0.00 0.00 37 1009.5
20260504231845 70 196 4.0 6.0 0.00 0.00 0.00 37 1009.6
20260504231720 70 218 1.0 2.0 0.00 0.00 0.00 37 1009.5
20260504231616 70 216 4.0 6.0 0.00 0.00 0.00 36 1009.7
20260504231527 70 205 3.0 5.0 0.00 0.00 0.00 36 1009.7
20260504231423 70 205 4.0 6.0 0.00 0.00 0.00 37 1009.5
20260504231319 70 263 3.0 5.0 0.00 0.00 0.00 36 1009.8
20260504231230 70 210 3.0 7.0 0.00 0.00 0.00 36 1009.6
20260504231146 70 249 6.0 10.0 0.00 0.00 0.00 36 1009.7
20260504231022 70 242 2.0 6.0 0.00 0.00 0.00 36 1009.4
20260504230917 70 223 5.0 6.0 0.00 0.00 0.00 36 1009.5
20260504230829 70 200 6.0 9.0 0.00 0.00 0.00 36 1009.3
20260504230725 70 188 4.0 7.0 0.00 0.00 0.00 36 1009.2
20260504230620 70 197 5.0 6.0 0.00 0.00 0.00 35 1009.3
20260504230516 70 205 6.0 9.0 0.00 0.00 0.00 36 1009.4
20260504230427 70 200 2.0 4.0 0.00 0.00 0.00 37 1009.3
20260504230403 70 226 3.0 6.0 0.00 0.00 0.00 36 1009.5
20260504230219 70 224 3.0 6.0 0.00 0.00 0.00 36 1009.4
20260504230131 70 203 4.0 6.0 0.00 0.00 0.00 36 1009.4
20260504230026 71 206 4.0 6.0 0.00 0.00 0.00 36 1009.2
20260504225922 71 226 3.0 4.0 0.00 0.00 0.00 36 1009.5
20260504225817 71 198 3.0 4.0 0.00 0.00 0.00 36 1009.5
20260504225729 71 236 2.0 4.0 0.00 0.00 0.00 35 1009.4
20260504225625 71 203 3.0 6.0 0.00 0.00 0.00 36 1009.4
20260504225540 71 194 3.0 4.0 0.00 0.00 0.00 36 1009.2
20260504225416 71 202 3.0 5.0 0.00 0.00 0.00 37 1009.4
20260504225328 71 200 3.0 4.0 0.00 0.00 0.00 36 1009.4
20260504225243 71 209 2.0 4.0 0.00 0.00 0.00 35 1009.4
20260504225119 71 219 3.0 4.0 0.00 0.00 0.00 36 1009.4
20260504225030 71 217 4.0 8.0 0.00 0.00 0.00 36 1009.4
20260504224926 71 202 3.0 4.0 0.00 0.00 0.00 36 1009.5
20260504224822 71 196 3.0 5.0 0.00 0.00 0.00 36 1009.2
20260504224717 71 230 3.0 4.0 0.00 0.00 0.00 35 1009.4
20260504224629 71 239 3.0 6.0 0.00 0.00 0.00 35 1009.5
20260504224524 71 241 4.0 8.0 0.00 0.00 0.00 35 1009.5
20260504224420 71 208 6.0 11.0 0.00 0.00 0.00 35 1009.6
20260504224316 71 200 4.0 7.0 0.00 0.00 0.00 35 1009.5
20260504224227 71 225 4.0 8.0 0.00 0.00 0.00 35 1009.4
20260504224123 71 202 5.0 7.0 0.00 0.00 0.00 36 1009.6
20260504224039 71 227 3.0 4.0 0.00 0.00 0.00 37 1009.3
20260504223930 71 196 1.0 3.0 0.00 0.00 0.00 36 1009.5
20260504223846 71 222 3.0 6.0 0.00 0.00 0.00 35 1009.5
20260504223722 71 240 3.0 6.0 0.00 0.00 0.00 36 1009.3
20260504223637 71 220 0.0 2.0 0.00 0.00 0.00 35 1009.4
20260504223529 71 239 2.0 6.0 0.00 0.00 0.00 35 1009.5
20260504223424 71 205 4.0 7.0 0.00 0.00 0.00 35 1009.5
20260504223320 71 206 4.0 6.0 0.00 0.00 0.00 35 1009.4
20260504223215 71 216 2.0 6.0 0.00 0.00 0.00 35 1009.5
20260504223127 71 194 5.0 6.0 0.00 0.00 0.00 35 1009.5
20260504223023 71 278 4.0 7.0 0.00 0.00 0.00 35 1009.5
20260504222918 71 224 4.0 5.0 0.00 0.00 0.00 35 1009.4
20260504222830 71 186 2.0 4.0 0.00 0.00 0.00 36 1009.5
20260504222726 71 204 4.0 6.0 0.00 0.00 0.00 35 1009.7
20260504222621 71 196 6.0 9.0 0.00 0.00 0.00 35 1009.3
20260504222517 71 229 3.0 6.0 0.00 0.00 0.00 35 1009.5
20260504222428 71 210 3.0 6.0 0.00 0.00 0.00 35 1009.4
20260504222324 71 208 2.0 4.0 0.00 0.00 0.00 34 1009.4
20260504222240 71 235 2.0 3.0 0.00 0.00 0.00 34 1009.5
20260504222115 71 224 3.0 5.0 0.00 0.00 0.00 35 1009.4
20260504222027 72 204 3.0 4.0 0.00 0.00 0.00 36 1009.5
20260504221923 71 200 3.0 7.0 0.00 0.00 0.00 35 1009.4
20260504221818 71 240 3.0 5.0 0.00 0.00 0.00 34 1009.5
20260504221730 71 207 2.0 3.0 0.00 0.00 0.00 35 1009.5
20260504221626 71 203 3.0 5.0 0.00 0.00 0.00 35 1009.5
20260504221521 71 179 3.0 5.0 0.00 0.00 0.00 34 1009.6
20260504221437 71 205 3.0 6.0 0.00 0.00 0.00 35 1009.5
20260504221329 71 247 2.0 3.0 0.00 0.00 0.00 34 1009.5
20260504221224 71 195 2.0 9.0 0.00 0.00 0.00 34 1009.6
20260504221120 71 191 5.0 9.0 0.00 0.00 0.00 34 1009.5
20260504221016 72 212 3.0 5.0 0.00 0.00 0.00 35 1009.4
20260504220927 72 207 4.0 7.0 0.00 0.00 0.00 34 1009.5
20260504220823 72 222 4.0 7.0 0.00 0.00 0.00 34 1009.8
20260504220718 72 236 4.0 6.0 0.00 0.00 0.00 34 1009.6
20260504220630 72 196 5.0 9.0 0.00 0.00 0.00 35 1009.6
20260504220526 72 213 3.0 4.0 0.00 0.00 0.00 35 1009.6
20260504220421 72 230 2.0 4.0 0.00 0.00 0.00 34 1009.7
20260504220317 72 221 2.0 6.0 0.00 0.00 0.00 34 1009.6
20260504220228 72 208 3.0 4.0 0.00 0.00 0.00 35 1009.8
20260504220124 72 267 2.0 3.0 0.00 0.00 0.00 34 1009.7
20260504220019 72 218 2.0 3.0 0.00 0.00 0.00 35 1009.6
20260504215915 72 198 2.0 4.0 0.00 0.00 0.00 35 1009.7
20260504215827 72 193 3.0 4.0 0.00 0.00 0.00 34 1009.6
20260504215723 72 253 2.0 5.0 0.00 0.00 0.00 33 1009.7
20260504215638 72 206 4.0 6.0 0.00 0.00 0.00 34 1009.8
20260504215530 72 218 3.0 5.0 0.00 0.00 0.00 34 1009.7
20260504215425 72 212 3.0 8.0 0.00 0.00 0.00 34 1009.7
20260504215341 72 210 5.0 7.0 0.00 0.00 0.00 35 1009.7
20260504215217 72 210 3.0 7.0 0.00 0.00 0.00 35 1009.6
20260504215129 72 218 3.0 4.0 0.00 0.00 0.00 34 1009.7
20260504215024 72 217 5.0 9.0 0.00 0.00 0.00 34 1009.8
20260504214920 72 220 4.0 6.0 0.00 0.00 0.00 34 1009.7
20260504214815 72 211 5.0 7.0 0.00 0.00 0.00 34 1009.8
20260504214727 72 222 2.0 6.0 0.00 0.00 0.00 34 1009.9
20260504214623 72 226 4.0 9.0 0.00 0.00 0.00 34 1009.8
20260504214518 72 203 3.0 7.0 0.00 0.00 0.00 34 1009.7
20260504214430 72 197 6.0 9.0 0.00 0.00 0.00 34 1009.8
20260504214345 72 239 4.0 10.0 0.00 0.00 0.00 34 1009.7
20260504214221 72 37 1.0 3.0 0.00 0.00 0.00 34 1009.8
20260504214117 72 220 3.0 4.0 0.00 0.00 0.00 34 1009.6
20260504214028 72 228 2.0 3.0 0.00 0.00 0.00 34 1009.8
20260504213924 73 195 3.0 4.0 0.00 0.00 0.00 34 1009.9
20260504213820 72 237 3.0 6.0 0.00 0.00 0.00 35 1009.9
20260504213715 72 208 4.0 5.0 0.00 0.00 0.00 35 1010.1
20260504213647 72 218 3.0 4.0 0.00 0.00 0.00 34 1009.9
20260504213522 72 284 2.0 4.0 0.00 0.00 0.00 33 1009.7
20260504213418 72 214 4.0 6.0 0.00 0.00 0.00 34 1009.8
20260504213330 72 201 3.0 6.0 0.00 0.00 0.00 33 1009.9
20260504213225 72 288 3.0 6.0 0.00 0.00 0.00 33 1009.9
20260504213121 72 269 3.0 6.0 0.00 0.00 0.00 33 1010.0
20260504213016 73 224 3.0 7.0 0.00 0.00 0.00 34 1009.9
20260504212928 73 203 6.0 9.0 0.00 0.00 0.00 34 1010.0
20260504212824 72 183 5.0 9.0 0.00 0.00 0.00 34 1010.0
20260504212739 72 210 4.0 8.0 0.00 0.00 0.00 34 1009.8
20260504212631 72 206 3.0 6.0 0.00 0.00 0.00 35 1009.7
20260504212546 72 213 3.0 4.0 0.00 0.00 0.00 33 1009.9
20260504212421 73 208 4.0 7.0 0.00 0.00 0.00 34 1010.0
20260504212317 73 211 4.0 10.0 0.00 0.00 0.00 34 1009.9
20260504212229 73 204 7.0 14.0 0.00 0.00 0.00 35 1009.8
20260504212125 73 194 6.0 9.0 0.00 0.00 0.00 34 1009.9
20260504212020 73 197 4.0 6.0 0.00 0.00 0.00 34 1010.0
20260504211916 73 192 6.0 9.0 0.00 0.00 0.00 34 1009.9
20260504211827 73 199 5.0 6.0 0.00 0.00 0.00 34 1010.0
20260504211723 73 226 3.0 6.0 0.00 0.00 0.00 34 1010.2
20260504211618 73 200 4.0 5.0 0.00 0.00 0.00 34 1009.8
20260504211530 73 229 4.0 6.0 0.00 0.00 0.00 34 1010.1
20260504211425 73 220 3.0 5.0 0.00 0.00 0.00 33 1010.0
20260504211321 73 217 3.0 6.0 0.00 0.00 0.00 34 1009.9
20260504211237 73 220 3.0 7.0 0.00 0.00 0.00 34 1010.0
20260504211128 73 207 3.0 9.0 0.00 0.00 0.00 34 1010.0
20260504211104 73 192 5.0 8.0 0.00 0.00 0.00 35 1010.1
20260504210919 73 305 2.0 5.0 0.00 0.00 0.00 34 1010.0
20260504210815 72 240 3.0 4.0 0.00 0.00 0.00 34 1009.9
20260504210807 72 225 3.0 6.0 0.00 0.00 0.00 34 1009.8
20260504210622 72 224 3.0 5.0 0.00 0.00 0.00 35 1010.1
20260504210518 72 200 5.0 6.0 0.00 0.00 0.00 33 1010.2
20260504210510 72 198 7.0 10.0 0.00 0.00 0.00 34 1010.0
20260504210345 73 212 5.0 9.0 0.00 0.00 0.00 34 1009.9
20260504210221 73 203 5.0 7.0 0.00 0.00 0.00 34 1009.9
20260504210116 73 213 3.0 5.0 0.00 0.00 0.00 35 1010.0
20260504210028 73 211 6.0 9.0 0.00 0.00 0.00 34 1009.8
20260504205923 73 219 3.0 5.0 0.00 0.00 0.00 36 1009.9
20260504205819 73 197 4.0 9.0 0.00 0.00 0.00 35 1009.9
20260504205750 73 207 8.0 12.0 0.00 0.00 0.00 34 1009.9
20260504205626 73 201 6.0 12.0 0.00 0.00 0.00 35 1009.8
20260504205521 72 198 4.0 6.0 0.00 0.00 0.00 35 1009.9
20260504205437 72 224 3.0 5.0 0.00 0.00 0.00 34 1009.8
20260504205328 72 241 2.0 4.0 0.00 0.00 0.00 35 1009.7
20260504205224 72 199 2.0 4.0 0.00 0.00 0.00 36 1010.0
20260504205119 72 207 3.0 6.0 0.00 0.00 0.00 34 1009.9
20260504205051 72 246 5.0 6.0 0.00 0.00 0.00 34 1010.0
20260504204926 72 229 4.0 6.0 0.00 0.00 0.00 34 1010.1
20260504204822 72 199 2.0 4.0 0.00 0.00 0.00 34 1009.9
20260504204717 72 222 2.0 3.0 0.00 0.00 0.00 33 1009.8
20260504204629 72 213 2.0 4.0 0.00 0.00 0.00 34 1010.0
20260504204524 73 239 3.0 5.0 0.00 0.00 0.00 33 1009.8
20260504204440 73 223 2.0 6.0 0.00 0.00 0.00 33 1009.7
20260504204315 73 208 5.0 9.0 0.00 0.00 0.00 34 1009.9
20260504204227 73 216 5.0 6.0 0.00 0.00 0.00 34 1010.0
20260504204122 73 207 3.0 5.0 0.00 0.00 0.00 34 1009.9
20260504204018 73 201 4.0 6.0 0.00 0.00 0.00 33 1009.9
20260504203929 73 214 4.0 5.0 0.00 0.00 0.00 34 1009.8
20260504203824 73 198 5.0 7.0 0.00 0.00 0.00 33 1009.8
20260504203720 73 203 3.0 4.0 0.00 0.00 0.00 34 1009.8
20260504203615 73 195 5.0 7.0 0.00 0.00 0.00 32 1010.0
20260504203526 73 203 5.0 6.0 0.00 0.00 0.00 33 1009.8
20260504203421 73 200 6.0 8.0 0.00 0.00 0.00 33 1009.8
20260504203337 73 205 6.0 9.0 0.00 0.00 0.00 35 1009.8
20260504203228 73 205 5.0 8.0 0.00 0.00 0.00 35 1009.9
20260504203124 73 201 6.0 13.0 0.00 0.00 0.00 33 1009.8
20260504203019 74 217 9.0 13.0 0.00 0.00 0.00 32 1009.9
20260504202930 74 212 4.0 9.0 0.00 0.00 0.00 33 1010.0
20260504202846 74 255 3.0 5.0 0.00 0.00 0.00 34 1009.9
20260504202722 73 210 3.0 4.0 0.00 0.00 0.00 35 1010.0
20260504202617 73 25 4.0 5.0 0.00 0.00 0.00 33 1010.0
20260504202529 73 219 2.0 5.0 0.00 0.00 0.00 33 1009.8
20260504202425 73 357 2.0 5.0 0.00 0.00 0.00 33 1010.0
20260504202320 73 220 3.0 5.0 0.00 0.00 0.00 32 1009.9
20260504202216 74 207 4.0 10.0 0.00 0.00 0.00 33 1010.1
20260504202127 74 231 2.0 4.0 0.00 0.00 0.00 33 1009.9
20260504202023 74 199 5.0 6.0 0.00 0.00 0.00 32 1009.9
20260504201918 74 209 3.0 5.0 0.00 0.00 0.00 33 1009.9
20260504201830 74 237 5.0 9.0 0.00 0.00 0.00 32 1010.1
20260504201725 74 204 4.0 8.0 0.00 0.00 0.00 34 1010.0
20260504201641 74 218 3.0 4.0 0.00 0.00 0.00 34 1009.8
20260504201516 74 196 4.0 7.0 0.00 0.00 0.00 32 1010.0
20260504201428 74 215 3.0 6.0 0.00 0.00 0.00 34 1010.2
20260504201323 74 271 2.0 5.0 0.00 0.00 0.00 33 1010.2
20260504201239 74 356 1.0 3.0 0.00 0.00 0.00 33 1010.0
20260504201130 74 252 2.0 3.0 0.00 0.00 0.00 33 1010.0
20260504201026 74 216 3.0 8.0 0.00 0.00 0.00 33 1010.0
20260504200941 74 195 2.0 6.0 0.00 0.00 0.00 34 1010.1
20260504200836 74 201 4.0 5.0 0.00 0.00 0.00 34 1010.2
20260504200748 74 212 5.0 7.0 0.00 0.00 0.00 35 1010.2
20260504200623 74 211 5.0 6.0 0.00 0.00 0.00 33 1010.1
20260504200519 74 207 5.0 7.0 0.00 0.00 0.00 33 1010.0
20260504200431 74 201 6.0 10.0 0.00 0.00 0.00 33 1010.0
20260504200325 74 293 4.0 6.0 0.00 0.00 0.00 32 1009.9
20260504200221 74 293 2.0 5.0 0.00 0.00 0.00 33 1010.1
20260504200136 74 212 3.0 6.0 0.00 0.00 0.00 34 1010.1
20260504200028 74 216 5.0 8.0 0.00 0.00 0.00 32 1010.0
20260504195924 74 227 2.0 5.0 0.00 0.00 0.00 32 1009.9
20260504195819 74 247 4.0 5.0 0.00 0.00 0.00 34 1010.0
20260504195750 74 199 5.0 8.0 0.00 0.00 0.00 34 1010.2
20260504195626 74 203 6.0 8.0 0.00 0.00 0.00 34 1010.1
20260504195521 74 203 5.0 7.0 0.00 0.00 0.00 34 1010.2
20260504195417 74 201 4.0 7.0 0.00 0.00 0.00 35 1010.2
20260504195329 74 183 3.0 5.0 0.00 0.00 0.00 34 1010.1
20260504195244 74 219 3.0 6.0 0.00 0.00 0.00 35 1010.2
20260504195120 74 210 5.0 7.0 0.00 0.00 0.00 35 1010.2
20260504195016 74 216 5.0 9.0 0.00 0.00 0.00 34 1010.1
20260504194927 74 204 5.0 9.0 0.00 0.00 0.00 35 1010.3
20260504194823 74 251 3.0 4.0 0.00 0.00 0.00 34 1010.1
20260504194718 74 206 5.0 6.0 0.00 0.00 0.00 35 1010.1
20260504194630 74 198 5.0 8.0 0.00 0.00 0.00 33 1010.2
20260504194526 73 204 2.0 4.0 0.00 0.00 0.00 34 1010.2
20260504194421 73 220 4.0 6.0 0.00 0.00 0.00 35 1010.1
20260504194317 73 206 4.0 7.0 0.00 0.00 0.00 34 1010.1
20260504194228 73 276 3.0 7.0 0.00 0.00 0.00 34 1010.1
20260504194124 73 202 5.0 9.0 0.00 0.00 0.00 36 1010.0
20260504194019 74 197 6.0 10.0 0.00 0.00 0.00 34 1010.1
20260504193915 74 216 4.0 7.0 0.00 0.00 0.00 34 1010.2
20260504193827 74 210 5.0 8.0 0.00 0.00 0.00 34 1010.1
20260504193722 74 210 5.0 9.0 0.00 0.00 0.00 34 1010.1
20260504193618 74 212 5.0 7.0 0.00 0.00 0.00 35 1010.2
20260504193530 74 208 5.0 9.0 0.00 0.00 0.00 36 1010.1
20260504193445 74 276 2.0 4.0 0.00 0.00 0.00 34 1010.2
20260504193321 74 197 3.0 4.0 0.00 0.00 0.00 33 1010.2
20260504193216 74 202 3.0 5.0 0.00 0.00 0.00 33 1010.2
20260504193128 73 192 2.0 3.0 0.00 0.00 0.00 34 1010.2
20260504193024 73 256 3.0 4.0 0.00 0.00 0.00 36 1010.3
20260504192919 73 250 2.0 4.0 0.00 0.00 0.00 34 1010.3
20260504192831 73 291 3.0 6.0 0.00 0.00 0.00 34 1010.2
20260504192746 73 212 3.0 6.0 0.00 0.00 0.00 35 1010.2
20260504192622 73 199 5.0 8.0 0.00 0.00 0.00 33 1010.2
20260504192517 74 189 7.0 9.0 0.00 0.00 0.00 32 1010.2
20260504192429 74 220 5.0 8.0 0.00 0.00 0.00 34 1010.5
20260504192325 74 197 3.0 5.0 0.00 0.00 0.00 35 1010.2
20260504192240 74 247 3.0 6.0 0.00 0.00 0.00 35 1010.5
20260504192116 73 222 4.0 8.0 0.00 0.00 0.00 35 1010.4
20260504192048 73 210 3.0 4.0 0.00 0.00 0.00 36 1010.5
20260504191943 73 236 3.0 6.0 0.00 0.00 0.00 34 1010.3
20260504191819 73 254 4.0 5.0 0.00 0.00 0.00 35 1010.2
20260504191731 73 195 5.0 6.0 0.00 0.00 0.00 34 1010.4
20260504191646 73 248 3.0 7.0 0.00 0.00 0.00 34 1010.3
20260504191522 73 200 6.0 9.0 0.00 0.00 0.00 34 1010.2
20260504191417 73 211 7.0 12.0 0.00 0.00 0.00 35 1010.4
20260504191349 74 197 5.0 9.0 0.00 0.00 0.00 34 1010.6
20260504191225 74 216 5.0 13.0 0.00 0.00 0.00 33 1010.6
20260504191120 74 232 3.0 4.0 0.00 0.00 0.00 36 1010.7
20260504191016 74 193 2.0 4.0 0.00 0.00 0.00 34 1010.6
20260504190928 74 286 2.0 7.0 0.00 0.00 0.00 34 1010.4
20260504190823 74 312 3.0 8.0 0.00 0.00 0.00 33 1010.4
20260504190719 73 219 3.0 7.0 0.00 0.00 0.00 33 1010.5
20260504190630 73 273 3.0 9.0 0.00 0.00 0.00 33 1010.6
20260504190526 73 232 3.0 4.0 0.00 0.00 0.00 34 1010.4
20260504190421 73 229 3.0 8.0 0.00 0.00 0.00 34 1010.6
20260504190357 73 195 6.0 9.0 0.00 0.00 0.00 34 1010.7
20260504190229 73 204 6.0 8.0 0.00 0.00 0.00 34 1010.7
20260504190144 73 197 7.0 13.0 0.00 0.00 0.00 34 1010.6
20260504190020 73 197 5.0 9.0 0.00 0.00 0.00 35 1010.5
20260504185915 73 189 5.0 6.0 0.00 0.00 0.00 36 1010.6
20260504185827 73 167 2.0 4.0 0.00 0.00 0.00 35 1010.5
20260504185723 73 222 4.0 6.0 0.00 0.00 0.00 35 1010.6
20260504185618 73 199 3.0 5.0 0.00 0.00 0.00 37 1010.7
20260504185530 72 207 4.0 5.0 0.00 0.00 0.00 37 1010.6
20260504185425 72 211 5.0 7.0 0.00 0.00 0.00 35 1010.9
20260504185321 72 211 3.0 5.0 0.00 0.00 0.00 37 1010.7
20260504185236 72 206 4.0 7.0 0.00 0.00 0.00 35 1010.8
20260504185128 72 203 5.0 7.0 0.00 0.00 0.00 35 1011.0
20260504185024 73 201 8.0 13.0 0.00 0.00 0.00 35 1011.0
20260504184919 73 226 6.0 9.0 0.00 0.00 0.00 35 1010.8
20260504184831 73 200 5.0 8.0 0.00 0.00 0.00 36 1010.9
20260504184726 73 210 3.0 7.0 0.00 0.00 0.00 34 1010.9
20260504184622 72 215 4.0 6.0 0.00 0.00 0.00 37 1010.9
20260504184517 72 213 5.0 7.0 0.00 0.00 0.00 35 1010.9
20260504184429 72 197 6.0 7.0 0.00 0.00 0.00 35 1011.0
20260504184325 72 194 8.0 13.0 0.00 0.00 0.00 34 1011.1
20260504184221 72 206 5.0 10.0 0.00 0.00 0.00 35 1011.0
20260504184116 72 207 4.0 7.0 0.00 0.00 0.00 36 1010.9
20260504184028 72 201 4.0 7.0 0.00 0.00 0.00 36 1010.9
20260504184003 72 218 4.0 8.0 0.00 0.00 0.00 35 1010.9
20260504183819 72 206 6.0 12.0 0.00 0.00 0.00 34 1011.2
20260504183730 72 211 6.0 11.0 0.00 0.00 0.00 34 1011.1
20260504183626 73 232 5.0 6.0 0.00 0.00 0.00 35 1011.0
20260504183522 73 204 4.0 5.0 0.00 0.00 0.00 34 1011.1
20260504183437 72 217 3.0 5.0 0.00 0.00 0.00 36 1011.1
20260504183329 72 210 4.0 6.0 0.00 0.00 0.00 35 1010.9
20260504183224 72 206 5.0 7.0 0.00 0.00 0.00 35 1011.2
20260504183120 72 212 5.0 7.0 0.00 0.00 0.00 34 1011.2
20260504183036 72 253 3.0 6.0 0.00 0.00 0.00 33 1011.2
20260504182928 73 228 5.0 12.0 0.00 0.00 0.00 33 1011.1
20260504182823 73 194 4.0 6.0 0.00 0.00 0.00 35 1011.0
20260504182719 73 172 3.0 4.0 0.00 0.00 0.00 35 1011.2
20260504182630 73 257 4.0 10.0 0.00 0.00 0.00 34 1011.1
20260504182526 73 216 4.0 7.0 0.00 0.00 0.00 36 1011.2
20260504182422 72 226 3.0 5.0 0.00 0.00 0.00 36 1011.2
20260504182317 73 208 3.0 9.0 0.00 0.00 0.00 35 1011.1
20260504182229 72 197 5.0 12.0 0.00 0.00 0.00 35 1011.2
20260504182124 72 241 3.0 5.0 0.00 0.00 0.00 37 1011.1
20260504182020 72 208 5.0 8.0 0.00 0.00 0.00 37 1011.1
20260504181936 72 202 7.0 12.0 0.00 0.00 0.00 35 1011.2
20260504181907 72 193 6.0 9.0 0.00 0.00 0.00 35 1011.0
20260504181723 72 191 6.0 9.0 0.00 0.00 0.00 35 1011.4
20260504181618 72 190 2.0 3.0 0.00 0.00 0.00 37 1011.3
20260504181530 72 196 4.0 10.0 0.00 0.00 0.00 36 1011.5
20260504181425 72 199 6.0 10.0 0.00 0.00 0.00 35 1011.3
20260504181321 71 277 3.0 6.0 0.00 0.00 0.00 35 1011.4
20260504181216 72 204 9.0 17.0 0.00 0.00 0.00 35 1011.3
20260504181148 71 280 6.0 12.0 0.00 0.00 0.00 35 1011.3
20260504181024 71 188 4.0 13.0 0.00 0.00 0.00 35 1011.3
20260504180919 71 194 7.0 14.0 0.00 0.00 0.00 34 1011.2
20260504180831 71 207 3.0 5.0 0.00 0.00 0.00 35 1011.4
20260504180727 72 198 6.0 9.0 0.00 0.00 0.00 34 1011.4
20260504180642 72 188 5.0 8.0 0.00 0.00 0.00 35 1011.5
20260504180518 71 213 3.0 6.0 0.00 0.00 0.00 36 1011.4
20260504180429 71 270 1.0 4.0 0.00 0.00 0.00 34 1011.4
20260504180325 71 269 2.0 6.0 0.00 0.00 0.00 35 1011.3
20260504180221 71 190 5.0 10.0 0.00 0.00 0.00 35 1011.5
20260504180116 71 199 6.0 8.0 0.00 0.00 0.00 35 1011.4
20260504180028 71 194 3.0 6.0 0.00 0.00 0.00 36 1011.7
20260504175923 71 196 5.0 8.0 0.00 0.00 0.00 37 1011.4
20260504175819 71 198 8.0 12.0 0.00 0.00 0.00 34 1011.4
20260504175730 71 196 6.0 10.0 0.00 0.00 0.00 36 1011.6
20260504175625 72 203 6.0 13.0 0.00 0.00 0.00 35 1011.4
20260504175521 72 201 5.0 9.0 0.00 0.00 0.00 34 1011.4
20260504175417 72 208 4.0 5.0 0.00 0.00 0.00 37 1011.6
20260504175328 71 202 2.0 6.0 0.00 0.00 0.00 36 1011.6
20260504175224 71 307 4.0 7.0 0.00 0.00 0.00 35 1011.6
20260504175119 71 324 3.0 8.0 0.00 0.00 0.00 36 1011.7
20260504175031 71 208 6.0 9.0 0.00 0.00 0.00 36 1011.8
20260504174926 71 189 6.0 10.0 0.00 0.00 0.00 35 1011.8
20260504174822 71 206 5.0 12.0 0.00 0.00 0.00 36 1011.8
20260504174720 71 214 6.0 9.0 0.00 0.00 0.00 34 1011.7
20260504174649 71 203 6.0 8.0 0.00 0.00 0.00 35 1011.7
20260504174525 72 214 5.0 8.0 0.00 0.00 0.00 34 1011.7
20260504174420 72 280 1.0 5.0 0.00 0.00 0.00 34 1011.8
20260504174316 72 194 3.0 6.0 0.00 0.00 0.00 37 1011.7
20260504174247 72 205 5.0 10.0 0.00 0.00 0.00 36 1011.8
20260504174123 72 250 4.0 9.0 0.00 0.00 0.00 35 1011.7
20260504174019 72 238 3.0 5.0 0.00 0.00 0.00 37 1011.9
20260504173930 72 285 5.0 6.0 0.00 0.00 0.00 38 1011.8
20260504173825 72 205 4.0 5.0 0.00 0.00 0.00 37 1011.8
20260504173721 71 194 4.0 4.0 0.00 0.00 0.00 38 1011.7
20260504173617 71 224 3.0 4.0 0.00 0.00 0.00 36 1011.7
20260504173528 71 220 4.0 8.0 0.00 0.00 0.00 36 1011.8
20260504173424 71 197 4.0 9.0 0.00 0.00 0.00 36 1011.8
20260504173320 71 201 3.0 5.0 0.00 0.00 0.00 37 1011.6
20260504173215 70 220 2.0 4.0 0.00 0.00 0.00 38 1011.8
20260504173147 70 221 2.0 6.0 0.00 0.00 0.00 37 1011.6
20260504173043 70 208 5.0 12.0 0.00 0.00 0.00 37 1011.8
20260504172918 70 205 6.0 11.0 0.00 0.00 0.00 38 1011.8
20260504172830 70 198 6.0 9.0 0.00 0.00 0.00 36 1011.7
20260504172725 70 218 5.0 8.0 0.00 0.00 0.00 36 1011.8
20260504172621 70 193 5.0 6.0 0.00 0.00 0.00 36 1011.9
20260504172537 70 229 6.0 14.0 0.00 0.00 0.00 35 1012.0
20260504172428 70 223 4.0 10.0 0.00 0.00 0.00 36 1012.0
20260504172324 70 215 6.0 11.0 0.00 0.00 0.00 36 1011.9
20260504172219 70 210 6.0 9.0 0.00 0.00 0.00 35 1011.7
20260504172151 71 203 5.0 7.0 0.00 0.00 0.00 34 1011.9
20260504172027 71 237 5.0 8.0 0.00 0.00 0.00 36 1012.0
20260504171922 71 198 5.0 8.0 0.00 0.00 0.00 37 1011.6
20260504171838 71 193 6.0 7.0 0.00 0.00 0.00 36 1011.8
20260504171809 71 229 1.0 6.0 0.00 0.00 0.00 36 1011.8
20260504171625 71 213 5.0 10.0 0.00 0.00 0.00 36 1011.9
20260504171521 71 205 4.0 9.0 0.00 0.00 0.00 38 1011.9
20260504171416 71 207 4.0 11.0 0.00 0.00 0.00 36 1012.0
20260504171328 71 10 3.0 6.0 0.00 0.00 0.00 36 1012.2
20260504171223 70 220 2.0 6.0 0.00 0.00 0.00 38 1012.1
20260504171119 70 24 3.0 6.0 0.00 0.00 0.00 37 1012.2
20260504171030 69 208 2.0 4.0 0.00 0.00 0.00 38 1012.0
20260504170926 69 245 5.0 7.0 0.00 0.00 0.00 37 1012.0
20260504170822 69 203 5.0 9.0 0.00 0.00 0.00 38 1012.1
20260504170717 69 196 6.0 8.0 0.00 0.00 0.00 37 1012.0
20260504170629 70 198 7.0 12.0 0.00 0.00 0.00 37 1012.0
20260504170525 69 196 4.0 10.0 0.00 0.00 0.00 37 1012.0
20260504170420 69 193 4.0 8.0 0.00 0.00 0.00 37 1012.0
20260504170336 69 200 4.0 6.0 0.00 0.00 0.00 39 1012.1
20260504170227 69 201 4.0 6.0 0.00 0.00 0.00 39 1012.2
20260504170143 69 192 7.0 13.0 0.00 0.00 0.00 36 1012.2
20260504160428 67 196 10.0 13.0 0.00 0.00 0.00 38 1013.1
20260504160323 67 205 7.0 11.0 0.00 0.00 0.00 38 1013.0
20260504160219 67 201 8.0 11.0 0.00 0.00 0.00 37 1013.1
20260504160131 67 196 8.0 11.0 0.00 0.00 0.00 37 1013.0
20260504151138 68 198 5.0 9.0 0.00 0.00 0.00 40 1013.3
20260504151030 67 291 2.0 4.0 0.00 0.00 0.00 40 1013.4
20260504150926 67 197 2.0 3.0 0.00 0.00 0.00 42 1013.5
20260504150821 66 226 2.0 5.0 0.00 0.00 0.00 40 1013.5
20260504150717 66 212 4.0 7.0 0.00 0.00 0.00 42 1013.4
20260504150648 66 196 5.0 6.0 0.00 0.00 0.00 41 1013.4
20260504150524 66 205 4.0 8.0 0.00 0.00 0.00 41 1013.5
20260504150420 65 185 6.0 13.0 0.00 0.00 0.00 40 1013.5
20260504150335 65 189 7.0 12.0 0.00 0.00 0.00 40 1013.5
20260504150227 65 191 5.0 11.0 0.00 0.00 0.00 41 1013.3
20260504150123 65 182 5.0 9.0 0.00 0.00 0.00 42 1013.5
20260504141318 63 185 4.0 6.0 0.00 0.00 0.00 47 1014.0
20260504141230 63 195 4.0 7.0 0.00 0.00 0.00 48 1013.9
20260504141126 63 224 5.0 9.0 0.00 0.00 0.00 47 1014.0
20260504141022 63 210 6.0 7.0 0.00 0.00 0.00 47 1013.7
20260504140917 63 200 5.0 9.0 0.00 0.00 0.00 49 1013.8
20260504140849 62 196 6.0 9.0 0.00 0.00 0.00 50 1013.9
20260504140724 63 196 6.0 9.0 0.00 0.00 0.00 49 1013.9
20260504140619 63 177 4.0 9.0 0.00 0.00 0.00 49 1013.7
20260504140515 63 204 6.0 9.0 0.00 0.00 0.00 50 1013.8
20260504140427 63 195 4.0 7.0 0.00 0.00 0.00 50 1013.8
20260504140343 62 227 3.0 5.0 0.00 0.00 0.00 49 1014.0
20260504140218 62 204 3.0 7.0 0.00 0.00 0.00 51 1013.8
20260504140150 62 195 5.0 9.0 0.00 0.00 0.00 50 1013.8